KD2RHT-13 Weather Reports


Display with metric or nautical units.
time (UTC)temp
F
wind
direction
speed
MPH
gust
MPH
rain 1hr
in
rain 24hr
in
rain mn
in
humidity
%
barometer
mb
20260505124909 70 181 5.0 6.0 0.00 0.00 0.00 64 1005.6
20260505124406 70 224 3.0 3.0 0.00 0.00 0.00 64 1005.3
20260505123902 70 202 5.0 6.0 0.00 0.00 0.00 64 1005.6
20260505123359 70 176 3.0 3.0 0.00 0.00 0.00 64 1005.6
20260505122854 70 66 5.0 9.0 0.00 0.00 0.00 65 1005.3
20260505122352 69 114 4.0 6.0 0.00 0.00 0.00 65 1005.0
20260505121849 69 214 1.0 2.0 0.00 0.00 0.00 66 1005.3
20260505121346 69 195 4.0 6.0 0.00 0.00 0.00 66 1005.6
20260505120842 69 150 0.0 1.0 0.00 0.00 0.00 66 1005.3
20260505120338 68 153 6.0 8.0 0.00 0.00 0.00 66 1005.3
20260505115837 68 198 3.0 5.0 0.00 0.00 0.00 67 1005.3
20260505115334 67 219 3.0 5.0 0.00 0.00 0.00 67 1005.3
20260505114832 67 214 5.0 6.0 0.00 0.00 0.00 68 1005.3
20260505114328 67 184 7.0 9.0 0.00 0.00 0.00 68 1005.3
20260505113825 66 188 2.0 3.0 0.00 0.00 0.00 69 1005.3
20260505113321 66 74 3.0 7.0 0.00 0.00 0.00 69 1005.3
20260505112817 66 145 3.0 3.0 0.00 0.00 0.00 69 1005.0
20260505112315 66 187 3.0 5.0 0.00 0.00 0.00 70 1005.3
20260505111810 65 201 1.0 1.0 0.00 0.00 0.00 71 1005.0
20260505111306 65 215 4.0 6.0 0.00 0.00 0.00 71 1005.3
20260505110802 65 201 4.0 6.0 0.00 0.00 0.00 70 1005.0
20260505110300 65 198 4.0 6.0 0.00 0.00 0.00 71 1005.0
20260505101734 61 116 0.0 0.0 0.00 0.00 0.00 81 1004.5
20260505101230 60 165 0.0 1.0 0.00 0.00 0.00 83 1004.5
20260505100727 60 144 0.0 0.0 0.00 0.00 0.00 83 1005.0
20260505100224 60 155 0.0 1.0 0.00 0.00 0.00 83 1004.5
20260505095723 60 194 0.0 0.0 0.00 0.00 0.00 84 1005.0
20260505095222 60 142 0.0 0.0 0.00 0.00 0.00 84 1005.0
20260505094717 60 143 1.0 1.0 0.00 0.00 0.00 83 1004.5
20260505094214 60 168 0.0 1.0 0.00 0.00 0.00 84 1004.5
20260505093710 60 170 0.0 1.0 0.00 0.00 0.00 85 1005.0
20260505093208 60 201 3.0 3.0 0.00 0.00 0.00 86 1005.0
20260505092704 60 108 1.0 2.0 0.00 0.00 0.00 88 1005.0
20260505092203 60 154 0.0 0.0 0.00 0.00 0.00 89 1005.0
20260505091700 60 161 0.0 0.0 0.00 0.00 0.00 88 1005.0
20260505091158 61 159 0.0 0.0 0.00 0.00 0.00 87 1005.0
20260505090655 61 154 0.0 0.0 0.00 0.00 0.00 87 1005.0
20260505090153 61 139 0.0 0.0 0.00 0.00 0.00 87 1005.0
20260505085650 61 172 1.0 2.0 0.00 0.00 0.00 86 1005.0
20260505085149 62 170 0.0 0.0 0.00 0.00 0.00 85 1005.0
20260505084646 62 167 0.0 1.0 0.00 0.00 0.00 85 1005.0
20260505084144 62 177 1.0 1.0 0.00 0.00 0.00 84 1005.3
20260505083641 63 199 1.0 2.0 0.00 0.00 0.00 82 1005.0
20260505083137 63 148 1.0 2.0 0.00 0.00 0.00 79 1005.0
20260505082634 63 197 3.0 3.0 0.00 0.00 0.00 77 1005.0
20260505082131 63 199 3.0 3.0 0.00 0.00 0.00 76 1005.3
20260505081626 64 222 4.0 5.0 0.00 0.00 0.00 75 1005.3
20260505081125 65 189 4.0 6.0 0.00 0.00 0.00 71 1005.3
20260505080621 65 217 2.0 5.0 0.00 0.00 0.00 69 1005.3
20260505080117 66 223 2.0 2.0 0.00 0.00 0.00 66 1005.3
20260505075613 66 169 3.0 3.0 0.00 0.00 0.00 66 1005.3
20260505075110 66 123 3.0 6.0 0.00 0.00 0.00 65 1005.3
20260505074607 66 266 5.0 8.0 0.00 0.00 0.00 66 1005.0
20260505074104 65 137 1.0 2.0 0.00 0.00 0.00 67 1005.3
20260505073602 65 191 2.0 2.0 0.00 0.00 0.00 69 1005.3
20260505073100 64 189 1.0 2.0 0.00 0.00 0.00 69 1005.3
20260505072555 64 171 0.0 1.0 0.00 0.00 0.00 70 1005.0
20260505072052 64 150 0.0 1.0 0.00 0.00 0.00 70 1005.3
20260505071547 64 210 4.0 6.0 0.00 0.00 0.00 70 1005.3
20260505071046 64 224 4.0 6.0 0.00 0.00 0.00 70 1005.3
20260505070543 64 173 3.0 3.0 0.00 0.00 0.00 71 1005.3
20260505070039 64 124 1.0 1.0 0.00 0.00 0.00 71 1005.3
20260505065535 64 101 1.0 2.0 0.00 0.00 0.00 71 1005.0
20260505065032 64 180 2.0 2.0 0.00 0.00 0.00 70 1005.0
20260505064528 64 137 3.0 5.0 0.00 0.00 0.00 70 1005.3
20260505064027 65 230 3.0 5.0 0.00 0.00 0.00 70 1005.0
20260505063524 64 143 5.0 9.0 0.00 0.00 0.00 68 1005.3
20260505063020 65 194 3.0 3.0 0.00 0.00 0.00 67 1005.3
20260505062516 65 168 1.0 2.0 0.00 0.00 0.00 65 1005.0
20260505062014 65 176 3.0 3.0 0.00 0.00 0.00 65 1005.3
20260505061511 65 184 2.0 3.0 0.00 0.00 0.00 64 1005.0
20260505061009 66 168 3.0 3.0 0.00 0.00 0.00 63 1005.3
20260505060506 66 184 5.0 7.0 0.00 0.00 0.00 62 1005.0
20260505060002 66 171 4.0 6.0 0.00 0.00 0.00 62 1005.3
20260505055458 66 233 1.0 2.0 0.00 0.00 0.00 61 1005.0
20260505054955 66 256 4.0 7.0 0.00 0.00 0.00 59 1005.0
20260505054452 66 224 5.0 6.0 0.00 0.00 0.00 58 1005.0
20260505053950 66 211 1.0 3.0 0.00 0.00 0.00 58 1005.0
20260505053447 65 102 1.0 2.0 0.00 0.00 0.00 58 1005.0
20260505052944 65 148 3.0 5.0 0.00 0.00 0.00 59 1005.0
20260505052441 65 147 1.0 2.0 0.00 0.00 0.00 60 1005.3
20260505051938 65 123 1.0 1.0 0.00 0.00 0.00 60 1005.3
20260505051435 64 140 0.0 0.0 0.00 0.00 0.00 60 1005.6
20260505050933 64 107 1.0 1.0 0.00 0.00 0.00 61 1005.3
20260505050431 65 144 0.0 0.0 0.00 0.00 0.00 61 1005.3
20260505041358 63 157 0.0 0.0 0.00 0.00 0.00 58 1005.3
20260505040855 63 122 0.0 1.0 0.00 0.00 0.00 58 1005.3
20260505040353 63 159 0.0 0.0 0.00 0.00 0.00 57 1005.3
20260505035850 63 145 1.0 2.0 0.00 0.00 0.00 56 1005.3
20260505035345 63 176 0.0 0.0 0.00 0.00 0.00 58 1005.3
20260505034843 63 162 0.0 1.0 0.00 0.00 0.00 57 1005.0
20260505034339 64 160 0.0 0.0 0.00 0.00 0.00 57 1005.0
20260505033837 64 160 0.0 0.0 0.00 0.00 0.00 56 1005.0
20260505033333 64 156 1.0 1.0 0.00 0.00 0.00 56 1005.3
20260505032832 64 185 0.0 0.0 0.00 0.00 0.00 56 1005.0
20260505032328 64 161 0.0 0.0 0.00 0.00 0.00 55 1005.3
20260505031825 64 177 0.0 1.0 0.00 0.00 0.00 55 1005.3
20260505031321 65 157 0.0 0.0 0.00 0.00 0.00 54 1005.0
20260505030819 65 164 1.0 1.0 0.00 0.00 0.00 54 1005.3
20260505030315 65 157 2.0 3.0 0.00 0.00 0.00 53 1005.0
20260505025810 65 137 2.0 2.0 0.00 0.00 0.00 53 1005.0
20260505025308 66 168 3.0 3.0 0.00 0.00 0.00 53 1005.0
20260505024806 65 106 3.0 5.0 0.00 0.00 0.00 53 1005.0
20260505024303 65 199 1.0 1.0 0.00 0.00 0.00 53 1005.3
20260505023801 65 175 5.0 7.0 0.00 0.00 0.00 53 1005.0
20260505023257 65 172 2.0 2.0 0.00 0.00 0.00 53 1005.0
20260505022755 64 90 2.0 3.0 0.00 0.00 0.00 53 1005.3
20260505022252 64 148 0.0 0.0 0.00 0.00 0.00 54 1005.3
20260505021749 63 123 3.0 5.0 0.00 0.00 0.00 54 1005.3
20260505021246 62 162 0.0 0.0 0.00 0.00 0.00 57 1005.3
20260505020741 61 155 0.0 0.0 0.00 0.00 0.00 59 1005.3
20260505020237 60 160 0.0 0.0 0.00 0.00 0.00 62 1005.3
20260505015734 60 150 0.0 0.0 0.00 0.00 0.00 62 1005.3
20260505015231 58 157 0.0 0.0 0.00 0.00 0.00 68 1005.0
20260505014728 58 154 0.0 0.0 0.00 0.00 0.00 68 1005.3
20260505014225 58 151 0.0 0.0 0.00 0.00 0.00 69 1005.0
20260505013722 58 157 0.0 0.0 0.00 0.00 0.00 67 1005.3
20260505013219 59 157 0.0 0.0 0.00 0.00 0.00 68 1005.3
20260505012717 59 160 0.0 0.0 0.00 0.00 0.00 67 1005.6
20260505012214 59 154 0.0 0.0 0.00 0.00 0.00 65 1005.3
20260505011710 59 155 0.0 0.0 0.00 0.00 0.00 65 1005.0
20260505011208 60 155 0.0 0.0 0.00 0.00 0.00 63 1005.3
20260505010702 60 154 0.0 0.0 0.00 0.00 0.00 62 1005.3
20260505010200 60 154 0.0 0.0 0.00 0.00 0.00 62 1005.3
20260505005655 61 154 0.0 0.0 0.00 0.00 0.00 61 1005.0
20260505005153 61 154 0.0 0.0 0.00 0.00 0.00 61 1005.3
20260505004650 62 154 0.0 0.0 0.00 0.00 0.00 60 1005.3
20260505004146 62 154 0.0 0.0 0.00 0.00 0.00 60 1005.0
20260505003644 62 154 0.0 0.0 0.00 0.00 0.00 59 1005.0
20260505003141 62 154 0.0 0.0 0.00 0.00 0.00 58 1005.3
20260505002637 63 154 0.0 0.0 0.00 0.00 0.00 57 1005.3
20260505002135 64 154 0.0 0.0 0.00 0.00 0.00 55 1005.0
20260505001632 64 154 0.0 0.0 0.00 0.00 0.00 54 1005.3
20260505001130 65 154 0.0 0.0 0.00 0.00 0.00 52 1005.0
20260505000627 66 154 0.0 0.0 0.00 0.00 0.00 51 1005.0
20260505000125 66 154 0.0 0.0 0.00 0.00 0.00 49 1005.0
20260504235620 67 155 0.0 0.0 0.00 0.00 0.00 49 1005.0
20260504235117 69 155 0.0 0.0 0.00 0.00 0.00 46 1005.0
20260504234615 70 157 0.0 0.0 0.00 0.00 0.00 45 1005.0
20260504234112 71 157 0.0 0.0 0.00 0.00 0.00 43 1005.0
20260504233607 71 155 0.0 0.0 0.00 0.00 0.00 42 1005.0
20260504233104 72 175 0.0 0.0 0.00 0.00 0.00 41 1005.0
20260504232601 72 168 1.0 2.0 0.00 0.00 0.00 40 1005.0
20260504232058 72 152 2.0 2.0 0.00 0.00 0.00 41 1005.0
20260504231555 73 176 0.0 1.0 0.00 0.00 0.00 42 1005.0
20260504231051 73 164 0.0 0.0 0.00 0.00 0.00 41 1005.0
20260504230547 73 130 0.0 1.0 0.00 0.00 0.00 39 1005.0
20260504230046 73 199 3.0 5.0 0.00 0.00 0.00 40 1005.3
20260504225543 73 188 2.0 2.0 0.00 0.00 0.00 41 1005.0
20260504225040 73 165 2.0 2.0 0.00 0.00 0.00 40 1005.0
20260504224536 73 168 0.0 1.0 0.00 0.00 0.00 41 1005.3
20260504224034 73 169 0.0 0.0 0.00 0.00 0.00 43 1005.0
20260504223531 73 199 2.0 3.0 0.00 0.00 0.00 41 1005.3
20260504223026 73 164 0.0 1.0 0.00 0.00 0.00 42 1005.3
20260504222523 73 191 4.0 5.0 0.00 0.00 0.00 40 1005.0
20260504222021 73 169 7.0 9.0 0.00 0.00 0.00 40 1005.3
20260504221518 73 167 2.0 2.0 0.00 0.00 0.00 44 1005.3
20260504221015 73 146 1.0 2.0 0.00 0.00 0.00 43 1005.3
20260504220511 73 169 1.0 2.0 0.00 0.00 0.00 44 1005.3
20260504220008 73 184 3.0 3.0 0.00 0.00 0.00 41 1005.6
20260504215505 73 167 3.0 5.0 0.00 0.00 0.00 41 1005.6
20260504215002 73 208 3.0 3.0 0.00 0.00 0.00 44 1005.3
20260504214458 73 186 4.0 6.0 0.00 0.00 0.00 42 1005.3
20260504213954 73 134 4.0 6.0 0.00 0.00 0.00 43 1005.6
20260504213450 73 229 5.0 7.0 0.00 0.00 0.00 42 1005.6
20260504212948 73 177 4.0 5.0 0.00 0.00 0.00 43 1005.3
20260504212444 73 175 1.0 1.0 0.00 0.00 0.00 44 1005.6
20260504211942 73 189 4.0 5.0 0.00 0.00 0.00 43 1005.6
20260504211438 73 209 2.0 3.0 0.00 0.00 0.00 43 1005.6
20260504210936 73 196 2.0 3.0 0.00 0.00 0.00 44 1005.6
20260504210432 74 169 2.0 2.0 0.00 0.00 0.00 44 1005.6
20260504205929 73 150 1.0 2.0 0.00 0.00 0.00 44 1005.3
20260504205427 73 192 1.0 1.0 0.00 0.00 0.00 45 1005.6
20260504204925 73 228 5.0 7.0 0.00 0.00 0.00 44 1005.6
20260504204423 73 168 1.0 1.0 0.00 0.00 0.00 47 1005.6
20260504203922 73 210 3.0 3.0 0.00 0.00 0.00 45 1005.6
20260504203419 73 114 3.0 5.0 0.00 0.00 0.00 44 1005.6
20260504202915 73 196 2.0 2.0 0.00 0.00 0.00 46 1006.0
20260504202412 73 229 7.0 9.0 0.00 0.00 0.00 44 1006.0
20260504201908 73 194 3.0 3.0 0.00 0.00 0.00 49 1006.0
20260504201406 73 160 3.0 3.0 0.00 0.00 0.00 44 1006.0
20260504200903 74 222 3.0 6.0 0.00 0.00 0.00 45 1006.0
20260504200400 74 161 2.0 2.0 0.00 0.00 0.00 45 1006.3
20260504195857 74 214 2.0 3.0 0.00 0.00 0.00 45 1006.3
20260504195352 74 126 3.0 3.0 0.00 0.00 0.00 47 1006.0
20260504194848 74 114 2.0 2.0 0.00 0.00 0.00 45 1006.3
20260504194345 73 208 2.0 2.0 0.00 0.00 0.00 46 1006.3
20260504193841 73 163 2.0 2.0 0.00 0.00 0.00 47 1006.3
20260504193338 74 225 3.0 3.0 0.00 0.00 0.00 46 1006.7
20260504192837 74 196 2.0 3.0 0.00 0.00 0.00 48 1006.7
20260504192334 74 198 5.0 8.0 0.00 0.00 0.00 46 1006.7
20260504191833 74 218 3.0 5.0 0.00 0.00 0.00 50 1006.7
20260504191330 74 220 3.0 5.0 0.00 0.00 0.00 47 1006.7
20260504190825 74 203 1.0 2.0 0.00 0.00 0.00 48 1007.0
20260504190322 73 185 3.0 5.0 0.00 0.00 0.00 47 1006.7
20260504185818 73 218 4.0 6.0 0.00 0.00 0.00 47 1007.0
20260504185315 73 181 2.0 3.0 0.00 0.00 0.00 47 1007.0
20260504184811 73 144 3.0 5.0 0.00 0.00 0.00 47 1007.0
20260504184307 73 152 1.0 2.0 0.00 0.00 0.00 48 1007.0
20260504183803 73 221 3.0 5.0 0.00 0.00 0.00 47 1007.0
20260504183300 74 222 4.0 5.0 0.00 0.00 0.00 48 1007.0
20260504182758 73 208 1.0 2.0 0.00 0.00 0.00 49 1007.0
20260504182255 73 300 4.0 5.0 0.00 0.00 0.00 49 1007.3
20260504181753 71 206 3.0 3.0 0.00 0.00 0.00 51 1007.3
20260504181250 72 197 3.0 5.0 0.00 0.00 0.00 50 1007.3
20260504180749 72 135 3.0 3.0 0.00 0.00 0.00 53 1007.3
20260504180247 72 220 5.0 8.0 0.00 0.00 0.00 49 1007.3
20260504175744 71 215 2.0 5.0 0.00 0.00 0.00 49 1007.3
20260504175241 71 136 5.0 7.0 0.00 0.00 0.00 50 1007.3
20260504174739 71 207 4.0 7.0 0.00 0.00 0.00 51 1007.3
20260504174237 73 226 5.0 6.0 0.00 0.00 0.00 49 1007.7
20260504173733 71 172 0.0 1.0 0.00 0.00 0.00 52 1007.7
20260504173230 70 318 4.0 6.0 0.00 0.00 0.00 54 1007.3
20260504172727 69 186 2.0 3.0 0.00 0.00 0.00 53 1007.3
20260504172223 70 222 3.0 6.0 0.00 0.00 0.00 50 1007.7
20260504171720 70 92 3.0 3.0 0.00 0.00 0.00 51 1007.7
20260504171217 70 225 1.0 2.0 0.00 0.00 0.00 54 1007.7
20260504170713 69 167 1.0 2.0 0.00 0.00 0.00 50 1007.7
20260504170211 70 329 3.0 3.0 0.00 0.00 0.00 55 1007.7
20260504160129 67 169 1.0 1.0 0.00 0.00 0.00 54 1008.3
20260504151056 64 172 1.0 2.0 0.00 0.00 0.00 59 1008.7
20260504150554 65 164 3.0 5.0 0.00 0.00 0.00 53 1008.7
20260504141020 61 212 6.0 9.0 0.00 0.00 0.00 55 1009.0
20260504140516 62 186 2.0 2.0 0.00 0.00 0.00 54 1009.0